User: anonymous   Login
Location: Unspecified
(0.0000°N, 0.0000°E)
Time: 23:19:56
(UTC+00:00)
Language:

BLACKJACK ACES-1 - Orbit

View from above orbital plane
View from above orbital plane
View from above satellite
View from above satellite

Ground track
Ground track

The orbit is defined by the following mean orbital elements,

1 56956U          26145.62684544 +.00000000 +00000-0 +30212-3 0 00002
2 56956  97.6164 280.5144 0001470  95.0384 265.1018 15.18262476    06
Epoch (UTC): 25 May 2026 15:02:39
Eccentricity: 0.0001470
inclination: 97.6164°
perigee height: 510 km
apogee height: 512 km
right ascension of ascending node: 280.5144°
argument of perigee: 95.0384°
revolutions per day: 15.18262476
mean anomaly at epoch: 265.1018°

The dashed part of the orbit path shows where the satellite is in the earth's shadow,  

DLR